sat.trackr.live / text

‹ back to catalog

STARLINK-37492

NORAD 68849 · 2026-094L

PAYLOAD ACTIVE UNKNOWN

§ Identity

Operator
Country
US
Launch date
2026-04-26
Launch site
AFWTR
Launch vehicle
Mass (kg)
RCS (m²)

Purposes: comms

External: N2YO · Heavens-Above · Gunter

§ Orbital elements

Epoch: 2026-05-25T04:00:03.998880Z

Period
92.95 min
Inclination
97.2846°
Eccentricity
0.0001418
Mean motion
15.49176702 rev/d
Perigee alt
418.2 km
Apogee alt
420.1 km
Semi-major
6,797.3 km
B*
-1.3182e-5
RAAN
159.8862°
Arg perigee
90.2274°
Mean anomaly
33.3698°
Rev number
567

§ Raw data

STARLINK-374921 68849U 26094L   26145.16671295 -.00000807  00000+0 -13182-4 0  99962 68849  97.2846 159.8862 0001418  90.2274  33.3698 15.49176702  5672

JSON: /api/v1/satellites/68849 · /tle

For live sub-satellite position, see the globe view (requires WebGL).

§ Visibility from observer

Set your observer location to see the next 7 days of passes ≥ 10°. The values pass through the URL so the page stays shareable.

No JS? Fill the form by hand. The geolocation button needs JavaScript.